Flag for Germany Weather past 2 weeks in Erding, Bavaria, Germany

Now
54 °F

Cool.


Feels Like: 53 °F
Forecast: 51 / 75 °F
Wind: 3 mph from Northeast

Location: Erding Airport

Current Time: Jul 24, 2014 at 6:44:20 AM

Latest Report: Jul 24, 2014 at 5:20 AM


Visibility: 2 mi

Pressure: 29.92 "Hg

Humidity: 100%

Dew point: 54 °F

Location of ErdingLocation

Historic Weather in Erding — Graph

°F

Erding temperature yesterday

Maximum temperature yesterday: 77 °F (at 3:20 PM)
Minimum temperature yesterday: 59 °F (at 5:20 AM)
Average temperature yesterday: 68 °F

Past Weeks' High & Low Weather Summary

 TemperatureHumidityPressure
High81 °F (Jul 16, 4:20 PM)100% (Jul 10, 10:20 PM)30.21 "Hg (Jul 10, 10:20 PM)
Low52 °F (Jul 10, 3:20 AM)37% (Jul 17, 5:20 PM)29.80 "Hg (Jul 10, 2:20 AM)
Average64 °F79%29.98 "Hg
* Reported Jul 9 3:20 PM — Jul 24 5:20 AM, Erding, Weather by CustomWeather, © 2014

Note: Actual official high and low records may vary slightly from our data, if they occured in-between our weather recording intervals... More about our weather records

Advertising

Erding weather history for previous 24 hours

 ConditionsComfort  
Time TempWeatherWind HumidityBarometerVisibility
5:20 AM
Jul 24
54 °FCool.3 mph100%29.92 "Hg2 mi
4:20 AM55 °FCool.3 mph100%29.92 "Hg2 mi
3:20 AM54 °FCool.2 mph100%29.92 "Hg2 mi
2:20 AM55 °FCool.1 mph100%29.95 "Hg2 mi
1:20 AM57 °FCool.No wind94%29.95 "Hg2 mi
12:20 AM57 °FCool.2 mph94%29.98 "Hg2 mi
11:20 PM
Jul 23
61 °FCool.2 mph83%29.98 "Hg2 mi
10:20 PM64 °FMild.3 mph73%29.98 "Hg2 mi
9:20 PM66 °FMild.2 mph78%29.98 "Hg2 mi
8:20 PM70 °FMild.3 mph69%29.95 "Hg2 mi
7:20 PM75 °FMild.5 mph54%29.95 "Hg2 mi
6:20 PM75 °FMild.7 mph54%29.95 "Hg2 mi
5:20 PM75 °FMild.6 mph54%29.95 "Hg2 mi
3:20 PM77 °FScattered clouds.9 mph51%29.98 "HgN/A
2:20 PM75 °FScattered clouds.9 mph50%29.98 "HgN/A
1:20 PM73 °FScattered clouds.10 mph57%30.01 "HgN/A
12:20 PM73 °FScattered clouds.10 mph65%30.01 "HgN/A
11:20 AM73 °FPassing clouds.7 mph74%30.01 "HgN/A
10:20 AM70 °FScattered clouds.2 mph83%30.04 "HgN/A
9:20 AM66 °FScattered clouds.2 mph100%30.04 "HgN/A
8:01 AM59 °FFog.1 mph100%30.04 "Hg1 mi
6:20 AM59 °FCool.1 mph100%30.01 "Hg0 mi
Weather by CustomWeather, © 2014

See weather overviewHow to use our weather pages